Location: C.E.K. Mees Observatory
(42.7003°N, 77.4088°W)
Time: 22:49:41
(UTC-04:00)

ISS - Pass Details

Date: 11 October 2017
Orbit: 401 x 408 km, 51.6° (Epoch: 22 October)

Event Time Altitude Azimuth Distance (km) Brightness Sun altitude
Rises 20:25:53 0° 302° (WNW) 2,326 1.2 -21.4°
Reaches altitude 10° 20:27:58 10° 301° (WNW) 1,464 0.0 -21.8°
Enters shadow 20:30:36 53° 288° (WNW) 503 -3.1 -22.3°
